Temp
2 2 2 2 2 2 2 2 2 2 1 1 0 -0 -1 -1 -2 -2 -2 -2 -2 -2 -2 -2 -2 -2 -2 -2 -2 -2 -3 -3 -2 -2 -2 -2 -2 -2 -2 -2 -2 -2
2 2 2 2 2 2 2 2 2 2 1 1 1 0 -0 -1 -2 -2 -2 -2 -2 -3 -3 -3 -3 -3 -3 -3 -3 -3 -3 -4 -3 -3 -3 -3 -3 -3 -3 -2 -3 -3
2 2 2 2 2 2 2 2 2 2 2 1 1 0 -0 -1 -1 -2 -2 -1 -2 -3 -3 -3 -3 -3 -4 -4 -4 -4 -4 -4 -4 -4 -4 -4 -4 -4 -3 -3 -3 -4
2 2 2 2 2 2 2 2 2 2 2 2 1 1 -0 -1 -1 -1 -2 -2 -2 -3 -3 -4 -4 -4 -5 -5 -5 -5 -5 -5 -4 -4 -4 -4 -5 -5 -4 -4 -5 -5
2 2 2 2 2 1 1 2 2 2 2 2 1 1 0 -1 -1 -1 -2 -2 -2 -3 -4 -4 -5 -5 -5 -5 -5 -5 -5 -5 -5 -5 -5 -5 -5 -6 -6 -6 -6 -6
3 2 2 2 2 1 1 1 2 2 2 1 1 1 0 -0 -1 -1 -2 -2 -3 -3 -4 -4 -5 -5 -5 -6 -6 -6 -6 -6 -6 -6 -6 -6 -6 -6 -7 -7 -7 -7
3 2 2 2 2 1 1 1 1 1 1 1 1 0 -0 -1 -1 -2 -2 -3 -3 -3 -4 -4 -5 -5 -6 -6 -7 -7 -7 -7 -7 -7 -7 -7 -7 -7 -8 -8 -7 -7
3 3 2 2 2 2 1 1 1 1 1 1 1 0 -0 -1 -1 -2 -2 -3 -3 -3 -4 -4 -5 -5 -6 -7 -7 -7 -7 -7 -7 -8 -7 -7 -8 -8 -8 -8 -8 -8
3 3 2 2 2 1 1 1 1 1 0 0 0 -0 -0 -1 -1 -2 -2 -3 -3 -4 -4 -5 -5 -6 -6 -7 -7 -7 -8 -8 -8 -8 -8 -8 -8 -8 -9 -9 -9 -9
3 2 2 2 1 1 1 1 0 0 -0 -0 -0 -0 -1 -1 -2 -2 -3 -3 -4 -4 -4 -5 -5 -6 -7 -7 -7 -7 -8 -8 -8 -8 -8 -8 -8 -8 -9 -9 -9 -9
2 2 2 1 1 1 0 0 -0 -0 -0 -1 -1 -1 -1 -1 -2 -2 -3 -4 -4 -4 -4 -5 -5 -6 -7 -7 -8 -8 -8 -8 -8 -8 -8 -8 -8 -8 -9 -9 -9 -9
1 1 1 1 0 0 -0 -0 -0 -1 -1 -1 -1 -1 -1 -2 -2 -3 -3 -4 -4 -4 -5 -5 -5 -6 -7 -7 -8 -8 -8 -8 -8 -9 -9 -9 -9 -9 -9 -9 -9 -9
0 0 -0 -0 -0 -0 -1 -1 -1 -1 -1 -1 -2 -2 -2 -2 -2 -3 -3 -4 -4 -5 -5 -5 -6 -6 -7 -7 -7 -8 -8 -8 -9 -9 -9 -10 -10 -9 -9 -10 -10 -10
-1 -1 -1 -1 -1 -1 -2 -2 -2 -2 -2 -2 -2 -2 -2 -3 -3 -3 -4 -4 -5 -5 -5 -5 -6 -6 -7 -7 -8 -8 -8 -8 -9 -9 -10 -10 -10 -10 -10 -10 -10 -10
-3 -3 -3 -3 -3 -3 -3 -3 -3 -3 -3 -3 -3 -3 -3 -3 -3 -4 -4 -5 -5 -5 -6 -6 -6 -7 -7 -8 -8 -8 -9 -9 -9 -10 -10 -11 -11 -11 -11 -11 -11 -11
-4 -4 -4 -4 -4 -4 -4 -4 -4 -4 -4 -4 -4 -4 -4 -4 -4 -4 -5 -5 -5 -6 -6 -7 -7 -7 -7 -8 -8 -8 -9 -9 -9 -10 -10 -11 -11 -12 -12 -12 -12 -12
-5 -5 -5 -5 -5 -5 -5 -5 -5 -5 -5 -5 -5 -5 -5 -5 -5 -5 -5 -5 -6 -6 -7 -7 -7 -7 -8 -8 -8 -9 -9 -9 -9 -10 -11 -11 -11 -12 -12 -13 -13 -13
-5 -5 -6 -6 -6 -6 -6 -6 -6 -6 -6 -6 -6 -6 -6 -6 -6 -6 -6 -6 -6 -7 -7 -7 -7 -8 -8 -8 -9 -9 -9 -9 -9 -10 -11 -11 -12 -12 -13 -13 -13 -14
-6 -6 -6 -6 -6 -6 -6 -6 -6 -6 -7 -7 -7 -7 -7 -7 -7 -7 -7 -7 -7 -7 -7 -7 -8 -8 -8 -9 -9 -9 -9 -9 -9 -10 -11 -11 -12 -12 -13 -13 -14 -14
-7 -7 -7 -7 -7 -7 -7 -7 -7 -7 -7 -7 -7 -7 -7 -8 -8 -8 -8 -8 -8 -8 -8 -8 -8 -8 -8 -9 -9 -9 -9 -9 -10 -10 -11 -11 -12 -12 -13 -13 -14 -14
-9 -9 -9 -8 -8 -8 -8 -7 -7 -7 -8 -8 -8 -8 -8 -8 -8 -8 -8 -8 -8 -8 -9 -9 -9 -9 -9 -9 -9 -9 -9 -9 -10 -11 -11 -12 -12 -13 -13 -13 -14 -14
-10 -10 -10 -10 -9 -9 -9 -8 -8 -8 -8 -8 -8 -8 -9 -9 -9 -9 -9 -9 -9 -9 -9 -9 -9 -9 -10 -10 -10 -10 -9 -9 -10 -11 -12 -12 -13 -13 -14 -14 -14 -14
-12 -11 -11 -11 -11 -11 -10 -10 -9 -9 -9 -9 -9 -9 -9 -9 -9 -9 -9 -10 -10 -10 -10 -10 -10 -10 -10 -10 -10 -10 -10 -10 -10 -11 -12 -13 -13 -14 -14 -14 -15 -15
-13 -12 -12 -12 -12 -12 -11 -11 -11 -10 -10 -10 -10 -10 -10 -10 -10 -10 -10 -10 -10 -10 -10 -11 -11 -11 -11 -11 -11 -11 -10 -10 -10 -11 -12 -14 -14 -14 -15 -15 -15 -15
-14 -14 -14 -13 -13 -13 -12 -12 -12 -11 -11 -11 -11 -11 -11 -10 -10 -11 -11 -11 -11 -11 -11 -11 -11 -11 -11 -12 -12 -12 -11 -11 -11 -11 -12 -14 -15 -15 -15 -16 -16 -16
-15 -15 -15 -14 -14 -14 -13 -13 -12 -12 -12 -12 -12 -11 -11 -11 -11 -11 -11 -11 -11 -12 -12 -12 -12 -12 -12 -12 -12 -12 -12 -11 -11 -11 -12 -14 -15 -15 -16 -16 -16 -16
Height
761 762 763 764 765 765 766 767 767 767 767 768 768 768 770 771 772 774 775 777 778 779 780 781 782 784 786 787 788 789 790 791 792 793 795 796 797 798 800 801 802 803
757 758 759 760 761 762 763 764 764 764 764 765 765 766 767 768 769 770 772 774 774 775 776 777 778 779 781 782 783 784 785 787 788 789 790 791 793 794 795 797 798 800
755 755 756 756 757 759 760 761 762 762 762 763 763 764 764 765 766 767 768 769 770 771 772 773 774 776 777 779 780 781 781 782 784 785 787 788 789 790 792 793 795 796
753 754 754 755 756 757 758 759 760 760 760 760 760 761 761 762 763 763 764 765 766 767 768 769 770 772 774 776 777 778 778 778 780 781 783 784 785 787 788 790 791 792
752 752 753 754 754 755 756 756 756 757 757 757 757 757 758 758 759 759 760 761 761 763 764 765 766 767 769 771 773 774 774 774 775 777 778 779 781 782 784 786 787 789
750 750 750 751 751 752 752 752 752 753 753 753 754 754 754 755 755 756 756 757 758 759 760 761 762 763 764 767 769 769 770 771 771 772 773 774 776 778 779 781 783 784
748 748 748 748 747 748 747 747 748 748 749 750 750 751 751 751 751 752 753 754 755 756 756 757 757 758 760 762 764 765 766 767 768 768 769 770 772 774 775 776 778 780
745 745 745 745 744 744 744 744 744 745 746 748 747 748 748 748 748 749 751 752 752 753 753 753 754 754 756 758 759 761 762 763 764 765 765 766 768 769 770 772 774 776
744 743 742 742 742 742 742 743 743 744 746 746 745 746 747 746 746 747 748 749 749 749 750 750 751 751 753 754 755 757 758 759 760 760 761 762 763 764 765 768 770 771
743 742 742 742 741 741 741 742 743 744 745 744 745 745 745 745 745 745 745 746 746 746 747 747 748 748 750 751 752 753 755 755 756 756 757 757 758 760 761 763 765 767
743 743 742 742 741 741 740 741 741 742 742 743 743 743 743 743 742 742 742 742 742 743 743 744 744 745 746 747 748 750 751 752 752 752 753 754 755 757 758 759 761 762
742 742 741 741 740 739 739 739 739 739 740 740 740 740 740 740 739 738 738 738 738 739 739 740 741 742 743 744 745 746 747 748 748 749 749 750 752 753 754 756 757 759
741 740 740 739 738 738 738 737 737 737 737 737 737 737 736 736 735 735 735 734 735 735 735 736 737 737 738 739 741 742 743 744 744 745 745 746 748 749 750 751 753 754
739 739 738 737 737 736 736 735 735 734 734 734 734 733 732 733 733 732 732 732 732 732 732 733 733 733 733 734 735 737 738 739 740 740 741 742 743 744 745 746 748 750
737 736 735 735 734 733 733 732 732 732 731 731 731 730 729 729 729 729 729 729 729 729 729 729 729 728 728 729 731 732 734 735 736 736 736 737 738 739 740 741 742 744
736 734 733 733 732 731 730 729 729 728 728 728 727 727 727 726 726 726 725 724 724 724 724 724 724 724 725 725 726 727 729 731 732 732 732 733 733 734 735 736 738 740
734 733 732 731 729 728 728 727 726 726 725 724 724 723 723 723 723 722 721 721 721 720 719 719 718 719 720 721 722 723 724 725 726 727 728 729 729 729 730 732 733 735
734 732 731 729 728 727 725 724 723 722 722 721 720 720 720 719 718 718 717 717 717 716 715 714 714 715 716 717 718 718 719 721 721 722 723 724 725 725 726 727 729 731
734 732 730 728 727 725 724 722 721 720 719 718 717 717 716 715 714 713 713 713 713 712 711 710 710 711 712 713 714 715 716 716 716 717 717 718 719 721 722 723 725 726
733 731 729 727 725 724 722 720 719 717 716 715 714 713 712 711 710 709 709 709 708 708 707 706 705 706 708 709 710 711 712 712 712 712 712 712 713 715 717 718 720 721
732 730 728 726 724 722 720 718 717 715 714 713 712 710 709 707 706 705 704 704 704 704 703 702 701 703 703 704 705 707 709 709 708 707 707 708 709 710 712 713 715 717
731 729 727 725 723 721 719 717 715 713 712 711 709 707 706 704 703 702 700 700 699 700 699 697 697 699 699 700 701 702 704 705 704 702 702 703 704 706 707 709 711 713
731 728 725 723 721 719 717 715 714 712 710 709 707 704 702 701 700 698 697 696 695 695 694 693 692 694 696 696 697 698 700 700 699 697 697 698 700 702 703 705 707 709
730 728 725 722 720 718 716 713 712 710 708 707 705 702 699 698 697 695 693 692 691 690 690 689 688 689 691 692 692 695 696 696 695 693 692 692 694 697 699 701 702 704
730 727 725 722 719 717 714 712 710 708 706 705 703 700 697 695 694 692 690 688 688 687 687 686 685 685 687 687 688 690 692 692 691 690 687 687 689 692 694 696 698 700
729 727 724 721 718 715 713 711 709 706 704 702 700 697 695 692 691 689 687 685 685 684 683 683 682 682 683 683 683 685 686 687 687 686 684 684 685 687 689 691 693 695
Wind_Speed
27 27 27 28 29 29 29 29 29 30 31 32 34 35 34 34 35 36 37 38 38 40 41 42 42 41 41 41 40 39 38 37 36 36 35 35 35 34 34 34 31 30
28 28 28 29 30 30 30 30 30 30 31 32 33 33 33 34 34 35 37 37 39 40 40 41 42 42 42 42 41 39 38 37 36 36 35 36 36 35 36 36 34 32
28 29 29 30 30 29 29 29 29 29 29 30 31 32 32 33 33 35 36 38 39 39 39 40 41 41 41 41 41 40 38 37 37 37 36 36 36 36 36 36 35 34
28 29 29 29 29 28 27 27 29 30 30 30 30 31 31 31 32 34 36 37 38 39 39 39 39 40 40 40 40 39 39 38 38 37 36 35 35 35 35 35 34 33
27 28 28 28 28 28 28 28 29 30 31 31 31 30 30 31 33 34 36 37 38 38 38 38 39 39 40 41 40 40 39 38 37 37 37 36 35 35 34 34 33 33
26 26 27 28 29 29 30 31 31 31 32 32 31 31 31 32 34 34 35 36 37 37 37 37 39 39 40 41 41 41 40 39 37 37 38 37 36 35 34 34 34 34
26 26 27 29 30 30 31 33 33 33 33 32 32 32 32 33 34 35 35 36 36 37 37 38 39 39 40 41 41 41 40 39 37 37 38 37 35 34 34 34 34 34
26 27 27 29 30 31 33 34 34 34 33 32 33 33 33 33 34 35 35 35 36 37 38 38 39 39 39 40 41 41 41 39 37 37 38 37 36 35 35 34 34 34
26 27 28 29 30 31 32 33 33 32 32 32 33 32 32 33 34 34 35 35 36 37 38 38 38 38 39 40 41 41 41 40 39 38 39 39 38 38 36 35 35 35
26 26 27 28 29 30 31 31 31 31 31 32 32 32 32 32 33 33 34 35 37 37 37 38 38 38 39 40 41 41 41 41 40 40 40 41 40 39 37 37 37 36
25 26 26 27 28 29 30 30 30 30 31 31 31 32 32 32 32 33 34 35 37 38 38 38 38 38 39 40 40 40 41 41 40 40 41 41 40 39 38 38 39 38
25 26 26 27 28 29 29 29 29 29 30 30 31 32 32 33 34 34 35 36 37 38 38 38 38 38 39 40 40 40 41 41 40 39 39 40 40 39 39 39 40 40
25 25 26 27 28 28 28 28 29 29 30 30 31 32 33 34 35 35 36 36 37 38 38 38 38 38 39 39 40 40 41 41 40 39 38 38 39 39 39 40 41 41
24 25 25 26 26 27 27 27 28 29 30 30 31 32 34 35 35 36 36 36 36 37 37 37 38 38 39 39 40 40 40 41 40 40 39 38 39 40 40 40 41 41
23 23 24 24 25 26 26 27 28 28 29 30 31 32 33 34 35 36 36 36 36 36 37 37 38 39 39 39 39 40 40 40 40 40 40 39 39 39 40 41 41 41
23 23 23 23 24 25 26 27 28 28 29 29 30 32 33 33 34 35 36 37 37 36 37 37 38 39 39 39 39 40 40 40 40 40 40 40 40 39 39 40 40 40
25 24 23 23 23 23 24 25 27 27 28 29 30 31 32 33 34 35 36 36 37 37 37 38 39 39 38 38 39 39 40 40 40 40 40 40 40 39 39 39 39 39
25 25 24 24 23 23 23 24 25 26 27 28 30 31 31 32 33 34 35 36 36 37 38 38 39 39 39 39 39 39 40 41 41 40 40 40 40 40 39 38 38 38
24 24 24 24 24 24 24 23 24 25 25 27 28 29 29 31 32 33 35 35 35 37 38 39 39 39 38 38 37 37 37 40 42 42 41 41 41 40 39 38 37 37
25 25 25 25 25 24 24 24 24 24 25 25 26 27 28 29 31 32 34 34 35 36 37 38 39 38 38 37 36 34 35 37 41 42 42 41 41 40 40 39 38 37
27 27 27 26 26 26 25 25 24 24 25 25 25 27 28 29 30 30 32 33 33 35 36 37 38 37 36 37 35 33 34 35 37 40 41 40 39 39 40 39 38 38
27 28 27 27 27 27 26 26 25 25 25 25 26 27 27 28 29 29 30 31 32 32 34 36 37 35 35 37 35 34 34 34 35 36 38 38 38 38 38 38 38 37
28 28 28 28 28 27 27 27 26 25 25 25 25 26 27 27 28 28 29 29 30 31 32 34 36 34 33 35 35 34 34 34 34 33 34 36 37 36 36 37 37 37
28 28 29 29 29 27 27 28 27 26 26 25 25 26 27 27 27 28 29 28 28 29 30 32 35 34 32 33 34 33 34 35 34 31 31 32 33 34 34 34 35 37
28 29 29 29 29 29 28 28 28 27 27 26 26 26 27 28 27 27 28 28 27 28 29 30 33 33 31 32 33 33 34 35 34 31 29 29 29 30 31 32 33 35
27 28 28 28 29 30 29 28 27 27 28 27 26 26 27 27 27 26 28 29 27 27 28 28 30 31 30 31 33 33 34 35 34 31 29 28 27 28 29 30 31 33
Wind_Direction
226 227 228 228 229 229 228 228 229 228 227 227 228 229 230 231 230 229 228 229 229 229 228 227 226 226 226 226 225 224 224 224 223 222 221 220 220 221 220 218 217 217
226 226 227 229 230 230 229 229 229 229 230 230 231 232 233 233 233 232 232 233 232 231 229 228 227 227 226 226 224 222 222 221 221 221 221 221 221 221 222 220 219 218
227 227 227 228 229 230 231 231 231 232 234 235 234 234 233 233 233 233 235 235 234 232 231 228 227 227 227 226 224 222 221 220 220 220 221 222 222 223 224 222 220 219
230 230 230 231 231 232 233 233 233 233 235 236 235 234 233 233 233 233 234 234 233 232 231 229 227 227 226 226 224 223 222 222 221 221 221 221 222 223 224 223 221 219
234 234 234 235 235 235 235 234 234 233 233 234 234 233 232 232 233 233 233 232 231 230 229 228 227 227 227 226 225 224 222 221 221 220 221 221 221 222 223 222 220 218
238 238 237 237 237 236 235 235 235 234 233 233 233 233 232 233 233 234 233 231 230 229 228 228 227 227 227 225 225 224 223 221 220 219 220 220 220 221 221 220 219 218
243 243 242 241 240 238 237 237 236 235 234 233 233 234 234 234 234 234 234 233 231 230 229 229 228 227 227 225 224 224 223 222 220 218 219 219 218 218 218 219 219 218
249 248 247 245 242 240 239 239 238 237 236 235 235 236 236 236 236 235 235 234 233 232 231 230 230 228 227 224 223 224 223 222 220 219 218 218 217 217 217 217 217 217
255 253 251 248 246 244 244 243 243 242 240 239 239 239 238 238 238 237 236 235 234 234 232 231 230 229 227 225 224 224 223 222 220 220 219 218 217 217 216 215 214 215
261 259 256 253 251 250 249 249 249 247 245 244 243 242 240 239 239 238 237 236 235 234 232 231 231 229 228 227 226 226 225 224 222 221 221 221 220 219 217 215 214 214
270 267 263 260 258 257 256 255 254 252 250 248 246 244 242 241 240 239 237 236 235 234 234 233 232 231 228 228 227 227 227 226 225 224 223 223 222 221 220 218 216 216
279 275 271 268 266 263 262 260 259 257 254 251 248 246 244 242 241 239 237 236 236 236 236 234 233 232 230 229 229 229 228 228 227 226 225 224 223 223 223 222 220 220
288 283 279 276 273 270 268 265 263 260 257 254 251 248 246 244 242 241 240 239 238 237 236 235 234 232 231 230 230 229 229 228 227 227 226 225 225 225 225 225 224 223
299 293 287 283 279 276 273 270 267 264 261 257 254 250 248 246 244 244 243 241 240 239 238 237 234 232 231 229 229 229 228 228 227 226 225 225 226 226 226 226 226 225
314 305 297 291 285 280 276 273 270 267 264 261 257 254 252 250 248 246 245 243 241 240 239 237 235 233 231 229 229 228 227 228 227 226 225 225 225 225 225 225 225 225
327 320 311 303 295 288 283 278 274 270 266 263 260 257 255 253 251 248 246 244 242 241 239 237 235 234 233 232 231 229 228 228 228 227 226 225 224 223 223 224 224 224
334 330 324 316 307 299 292 286 281 275 270 266 263 260 258 256 253 251 249 247 245 243 240 238 237 236 234 233 232 231 229 228 227 227 226 225 224 223 222 221 222 223
336 332 328 323 317 310 302 295 288 281 275 270 266 263 261 258 255 253 252 250 247 245 243 241 240 239 237 235 232 231 230 229 229 227 226 225 224 223 222 221 220 220
339 334 329 325 321 316 310 304 295 286 280 274 271 268 265 261 258 256 254 251 249 247 246 245 244 242 239 236 233 229 228 229 230 229 227 227 225 224 223 221 219 219
340 336 331 326 323 319 313 307 300 292 286 281 277 273 268 264 262 259 257 254 251 249 249 248 247 244 241 238 233 227 225 228 231 231 230 229 227 225 224 222 220 219
338 335 331 328 324 320 315 308 302 297 292 288 283 277 272 268 265 262 260 258 255 253 251 251 250 247 243 239 233 227 225 228 232 232 230 229 228 226 225 223 221 220
335 332 329 327 325 322 318 312 306 300 297 295 289 282 277 272 269 266 263 261 259 255 253 253 253 250 246 243 235 228 227 230 233 232 228 227 228 226 225 224 222 221
333 330 327 325 323 321 318 314 310 305 302 299 293 286 281 277 273 271 267 264 261 257 253 253 255 252 249 246 238 230 229 230 232 232 228 225 226 226 224 224 223 222
330 328 325 323 321 318 316 315 313 309 305 302 296 289 284 282 279 276 273 268 264 261 256 254 256 254 250 247 240 232 230 232 232 232 228 223 221 223 223 223 223 224
325 324 322 321 319 316 314 313 312 310 307 303 298 292 288 286 283 279 276 273 269 266 263 258 257 256 252 248 242 234 231 233 234 233 229 222 216 217 219 221 222 224
322 321 320 319 317 315 313 312 311 312 310 305 300 295 291 287 284 280 278 277 274 270 267 262 259 257 255 250 245 238 232 232 234 234 230 223 216 213 214 215 218 220